DAL1122 KLAX-KDEN

Flight info

Callsign DAL1122
Flight time 1h 29m
Altitude 41000
Route ORCKA5 LAS J146 DICEE BUMMP SSKII4
Aircraft A359/H-SDE2E3GHIJ3J4J5LM1ORWXY/LB1D1

Departure

Time 2026-05-06 21:20
Airport Los Angeles International Airport (KLAX)

Arrival

Time 2026-05-06 22:50
Airport Denver International Airport (KDEN)
Time Latitude Longitude Altitude Speed Heading
2026-05-06 20:43 33.94261 -118.41123 129 ft 0 kts 83°
2026-05-06 21:07 33.94261 -118.41126 132 ft 2 kts 89°
2026-05-06 21:08 33.94264 -118.41149 135 ft 2 kts 112°
2026-05-06 21:08 33.94267 -118.41155 137 ft 2 kts 107°
2026-05-06 21:08 33.94269 -118.41171 138 ft 2 kts 101°
2026-05-06 21:08 33.94270 -118.41187 128 ft 2 kts 74°
2026-05-06 21:09 33.94266 -118.41200 132 ft 1 kts 59°
2026-05-06 21:09 33.94259 -118.41213 132 ft 2 kts 34°
2026-05-06 21:09 33.94248 -118.41220 129 ft 1 kts
2026-05-06 21:09 33.94245 -118.41220 130 ft 0 kts
2026-05-06 21:13 33.94244 -118.41220 130 ft 0 kts
2026-05-06 21:14 33.94242 -118.41221 131 ft 0 kts
2026-05-06 21:14 33.94264 -118.41220 132 ft 8 kts
2026-05-06 21:14 33.94332 -118.41226 128 ft 11 kts 357°
2026-05-06 21:14 33.94415 -118.41239 126 ft 13 kts 352°
2026-05-06 21:15 33.94513 -118.41258 129 ft 16 kts 351°
2026-05-06 21:15 33.94625 -118.41279 129 ft 15 kts 353°
2026-05-06 21:15 33.94723 -118.41291 130 ft 14 kts 355°
2026-05-06 21:15 33.94799 -118.41226 123 ft 15 kts 66°
2026-05-06 21:16 33.94822 -118.41095 123 ft 17 kts 86°
2026-05-06 21:16 33.94831 -118.40946 124 ft 19 kts 86°
2026-05-06 21:16 33.94847 -118.40775 123 ft 22 kts 82°
2026-05-06 21:16 33.94868 -118.40581 129 ft 25 kts 83°
2026-05-06 21:17 33.94888 -118.40371 129 ft 26 kts 83°
2026-05-06 21:17 33.94914 -118.40145 129 ft 28 kts 81°
2026-05-06 21:17 33.94927 -118.40005 132 ft 12 kts 84°
2026-05-06 21:17 33.94938 -118.39955 123 ft 0 kts 60°
2026-05-06 21:18 33.94995 -118.39916 128 ft 12 kts
2026-05-06 21:19 33.95029 -118.39954 129 ft 7 kts 291°
2026-05-06 21:19 33.95033 -118.40011 127 ft 1 kts 265°
2026-05-06 21:19 33.95028 -118.40062 132 ft 34 kts 263°
2026-05-06 21:20 33.94961 -118.40730 121 ft 118 kts 264°
2026-05-06 21:20 33.94884 -118.41491 162 ft 155 kts 262°
2026-05-06 21:20 33.94641 -118.43193 1357 ft 150 kts 257°
2026-05-06 21:20 33.94443 -118.44470 2181 ft 163 kts 264°
2026-05-06 21:21 33.94374 -118.45893 2874 ft 177 kts 272°
2026-05-06 21:21 33.94415 -118.46881 3322 ft 180 kts 276°
2026-05-06 21:21 33.94463 -118.48436 3863 ft 195 kts 275°
2026-05-06 21:21 33.94538 -118.50180 4168 ft 224 kts 276°
2026-05-06 21:22 33.94616 -118.52144 4636 ft 242 kts 276°
2026-05-06 21:22 33.94720 -118.54186 5430 ft 248 kts 277°
2026-05-06 21:22 33.94812 -118.56294 6216 ft 256 kts 276°
2026-05-06 21:22 33.94915 -118.58454 7061 ft 260 kts 276°
2026-05-06 21:23 33.95023 -118.60661 7882 ft 269 kts 276°
2026-05-06 21:23 33.95126 -118.62929 8774 ft 273 kts 276°
2026-05-06 21:23 33.95222 -118.65237 9690 ft 278 kts 276°
2026-05-06 21:23 33.95260 -118.67592 10532 ft 284 kts 269°
2026-05-06 21:24 33.94819 -118.69931 11433 ft 291 kts 248°
2026-05-06 21:24 33.93607 -118.71894 12277 ft 298 kts 218°
2026-05-06 21:24 33.91729 -118.72890 13114 ft 298 kts 185°
2026-05-06 21:24 33.89701 -118.72613 13931 ft 294 kts 153°
2026-05-06 21:25 33.88113 -118.71178 14551 ft 284 kts 122°
2026-05-06 21:25 33.87386 -118.69047 14905 ft 273 kts 91°
2026-05-06 21:25 33.87549 -118.66808 15038 ft 270 kts 77°
2026-05-06 21:25 33.87697 -118.64521 15359 ft 277 kts 82°
2026-05-06 21:26 33.87893 -118.62216 16133 ft 277 kts 77°
2026-05-06 21:26 33.88341 -118.59977 16985 ft 275 kts 70°
2026-05-06 21:26 33.88920 -118.57773 17784 ft 277 kts 68°
2026-05-06 21:26 33.89541 -118.55566 18538 ft 280 kts 68°
2026-05-06 21:27 33.90181 -118.53348 19212 ft 283 kts 67°
2026-05-06 21:27 33.90838 -118.51098 19854 ft 286 kts 67°
2026-05-06 21:27 33.91502 -118.48833 20508 ft 288 kts 67°
2026-05-06 21:27 33.92174 -118.46546 21167 ft 291 kts 67°
2026-05-06 21:28 33.92902 -118.44267 21805 ft 292 kts 61°
2026-05-06 21:28 33.93907 -118.42183 22451 ft 292 kts 54°
2026-05-06 21:28 33.95050 -118.40146 23084 ft 295 kts 53°
2026-05-06 21:28 33.96220 -118.38101 23715 ft 298 kts 53°
2026-05-06 21:29 33.97400 -118.36035 24285 ft 300 kts 53°
2026-05-06 21:29 33.98580 -118.33962 24874 ft 300 kts 53°
2026-05-06 21:29 33.99761 -118.31882 25425 ft 302 kts 53°
2026-05-06 21:29 34.00949 -118.29788 25964 ft 303 kts 53°
2026-05-06 21:30 34.02149 -118.27687 26509 ft 305 kts 53°
2026-05-06 21:30 34.03351 -118.25567 27013 ft 307 kts 53°
2026-05-06 21:30 34.04564 -118.23423 27464 ft 312 kts 53°
2026-05-06 21:30 34.05792 -118.21253 27961 ft 314 kts 53°
2026-05-06 21:31 34.07025 -118.19074 28483 ft 316 kts 53°
2026-05-06 21:31 34.08269 -118.16874 28956 ft 319 kts 53°
2026-05-06 21:31 34.09538 -118.14631 29215 ft 328 kts 53°
2026-05-06 21:31 34.10845 -118.12320 29456 ft 339 kts 54°
2026-05-06 21:32 34.12190 -118.09939 29691 ft 348 kts 54°
2026-05-06 21:32 34.14998 -118.04970 30166 ft 368 kts 54°
2026-05-06 21:32 34.16456 -118.02378 30427 ft 378 kts 54°
2026-05-06 21:33 34.17949 -117.99723 30645 ft 387 kts 54°
2026-05-06 21:33 34.19479 -117.96999 30890 ft 396 kts 54°
2026-05-06 21:33 34.21040 -117.94216 31108 ft 405 kts 54°
2026-05-06 21:33 34.22638 -117.91369 31318 ft 413 kts 54°
2026-05-06 21:34 34.24268 -117.88464 31569 ft 422 kts 54°
2026-05-06 21:34 34.25929 -117.85506 31742 ft 430 kts 54°
2026-05-06 21:34 34.27624 -117.82484 31957 ft 437 kts 54°
2026-05-06 21:34 34.29332 -117.79433 32284 ft 440 kts 54°
2026-05-06 21:35 34.31051 -117.76359 32628 ft 443 kts 54°
2026-05-06 21:35 34.32775 -117.73271 33049 ft 444 kts 54°
2026-05-06 21:35 34.34513 -117.70164 33336 ft 447 kts 54°
2026-05-06 21:35 34.36280 -117.67053 33707 ft 448 kts 53°
2026-05-06 21:36 34.38102 -117.64018 34280 ft 444 kts 52°
2026-05-06 21:36 34.39920 -117.61007 34719 ft 443 kts 52°
2026-05-06 21:36 34.41733 -117.57993 35084 ft 442 kts 52°
2026-05-06 21:36 34.43539 -117.54978 35466 ft 442 kts 52°
2026-05-06 21:37 34.45340 -117.51963 35874 ft 441 kts 52°
2026-05-06 21:37 34.47136 -117.48950 36231 ft 441 kts 53°
2026-05-06 21:37 34.48930 -117.45936 36624 ft 440 kts 52°
2026-05-06 21:37 34.50717 -117.42931 37049 ft 438 kts 52°
2026-05-06 21:38 34.52496 -117.39935 37408 ft 438 kts 52°
2026-05-06 21:38 34.54274 -117.36939 37731 ft 437 kts 52°
2026-05-06 21:38 34.56048 -117.33948 38072 ft 437 kts 53°
2026-05-06 21:38 34.57822 -117.30953 38380 ft 436 kts 52°
2026-05-06 21:39 34.59590 -117.27966 38675 ft 436 kts 53°
2026-05-06 21:39 34.61357 -117.24979 38927 ft 435 kts 52°
2026-05-06 21:39 34.63125 -117.21986 39095 ft 437 kts 52°
2026-05-06 21:39 34.64899 -117.18983 39225 ft 439 kts 52°
2026-05-06 21:40 34.66679 -117.15965 39326 ft 440 kts 52°
2026-05-06 21:40 34.68461 -117.12942 39492 ft 441 kts 52°
2026-05-06 21:40 34.70249 -117.09906 39650 ft 442 kts 52°
2026-05-06 21:40 34.72043 -117.06857 39809 ft 444 kts 52°
2026-05-06 21:41 34.73840 -117.03801 39961 ft 445 kts 52°
2026-05-06 21:41 34.75642 -117.00733 40109 ft 446 kts 52°
2026-05-06 21:41 34.77446 -116.97658 40344 ft 446 kts 52°
2026-05-06 21:41 34.79238 -116.94601 40661 ft 443 kts 52°
2026-05-06 21:42 34.81003 -116.91589 40869 ft 443 kts 52°
2026-05-06 21:42 34.82789 -116.88537 41019 ft 444 kts 52°
2026-05-06 21:42 34.86370 -116.82412 41064 ft 444 kts 52°
2026-05-06 21:43 34.89929 -116.76313 41062 ft 436 kts 52°
2026-05-06 21:43 34.93677 -116.70568 41061 ft 431 kts 46°
2026-05-06 21:44 34.97747 -116.65205 41047 ft 431 kts 45°
2026-05-06 21:44 35.01823 -116.59844 41028 ft 431 kts 45°
2026-05-06 21:45 35.05892 -116.54480 41012 ft 431 kts 45°
2026-05-06 21:45 35.09963 -116.49102 41001 ft 431 kts 45°
2026-05-06 21:46 35.14031 -116.43719 40990 ft 431 kts 45°
2026-05-06 21:46 35.18094 -116.38333 41020 ft 431 kts 45°
2026-05-06 21:47 35.22145 -116.32956 41029 ft 429 kts 45°
2026-05-06 21:47 35.26189 -116.27584 41009 ft 429 kts 45°
2026-05-06 21:48 35.30415 -116.21958 41010 ft 433 kts 45°
2026-05-06 21:48 35.38728 -116.10862 41020 ft 451 kts 46°
2026-05-06 21:49 35.47153 -115.99575 41027 ft 452 kts 46°
2026-05-06 21:49 35.55635 -115.88176 41039 ft 452 kts 46°
2026-05-06 21:50 35.64101 -115.76761 41036 ft 452 kts 46°
2026-05-06 21:50 35.72471 -115.65246 41044 ft 452 kts 46°
2026-05-06 21:51 35.80860 -115.53669 41051 ft 454 kts 46°
2026-05-06 21:51 35.89258 -115.42047 41056 ft 454 kts 46°
2026-05-06 21:52 35.97643 -115.30404 41079 ft 454 kts 46°
2026-05-06 21:52 36.05999 -115.18685 41052 ft 455 kts 49°
2026-05-06 21:53 36.09230 -115.11936 41058 ft 460 kts 64°
2026-05-06 21:53 36.11612 -115.04582 41053 ft 462 kts 66°
2026-05-06 21:53 36.16113 -114.89668 40986 ft 463 kts 66°
2026-05-06 21:54 36.20679 -114.74746 40959 ft 463 kts 66°
2026-05-06 21:54 36.25233 -114.59837 40922 ft 463 kts 66°
2026-05-06 21:55 36.29772 -114.44887 40925 ft 463 kts 66°
2026-05-06 21:55 36.34292 -114.29928 40924 ft 464 kts 66°
2026-05-06 21:56 36.38808 -114.14914 40926 ft 464 kts 66°
2026-05-06 21:56 36.43268 -113.99993 40942 ft 465 kts 66°
2026-05-06 21:57 36.47752 -113.84924 40954 ft 465 kts 66°
2026-05-06 21:57 36.52225 -113.69805 40957 ft 467 kts 66°
2026-05-06 21:58 36.56704 -113.54582 40963 ft 469 kts 66°
2026-05-06 21:58 36.61166 -113.39339 40970 ft 469 kts 66°
2026-05-06 21:59 36.65622 -113.24031 40975 ft 470 kts 66°
2026-05-06 21:59 36.70046 -113.08699 41038 ft 470 kts 67°
2026-05-06 22:00 36.74465 -112.93322 41057 ft 472 kts 67°
2026-05-06 22:00 36.78870 -112.77906 41042 ft 472 kts 67°
2026-05-06 22:01 36.83268 -112.62429 40960 ft 474 kts 67°
2026-05-06 22:01 36.87655 -112.46897 40935 ft 474 kts 67°
2026-05-06 22:02 36.92037 -112.31299 40928 ft 477 kts 67°
2026-05-06 22:02 36.96404 -112.15646 40914 ft 477 kts 68°
2026-05-06 22:03 37.00771 -111.99932 40882 ft 479 kts 68°
2026-05-06 22:03 37.05128 -111.84165 40865 ft 479 kts 68°
2026-05-06 22:04 37.09452 -111.68420 40846 ft 479 kts 68°
2026-05-06 22:04 37.13736 -111.52732 40936 ft 479 kts 68°
2026-05-06 22:05 37.18032 -111.36913 40909 ft 479 kts 68°
2026-05-06 22:05 37.22516 -111.21202 40863 ft 476 kts 61°
2026-05-06 22:06 37.28361 -111.06314 40869 ft 477 kts 60°
2026-05-06 22:06 37.34276 -110.91395 40874 ft 477 kts 60°
2026-05-06 22:07 37.40177 -110.76453 40901 ft 479 kts 60°
2026-05-06 22:07 37.46104 -110.61371 40925 ft 482 kts 60°
2026-05-06 22:08 37.52022 -110.46238 40972 ft 482 kts 60°
2026-05-06 22:08 37.57933 -110.31049 40962 ft 480 kts 60°
2026-05-06 22:09 37.62799 -110.18490 40984 ft 479 kts 60°
2026-05-06 22:09 37.68645 -110.03338 41012 ft 482 kts 60°
2026-05-06 22:10 37.74498 -109.88095 41024 ft 482 kts 60°
2026-05-06 22:10 37.80332 -109.72818 41040 ft 484 kts 61°
2026-05-06 22:11 37.86179 -109.57431 41069 ft 485 kts 60°
2026-05-06 22:11 37.92009 -109.42016 41050 ft 487 kts 61°
2026-05-06 22:12 37.97857 -109.26474 41057 ft 488 kts 61°
2026-05-06 22:12 38.03655 -109.10985 41061 ft 486 kts 60°
2026-05-06 22:13 38.09472 -108.95370 41036 ft 490 kts 61°
2026-05-06 22:13 38.15521 -108.79882 41035 ft 490 kts 59°
2026-05-06 22:14 38.21627 -108.64337 41031 ft 493 kts 59°
2026-05-06 22:14 38.27729 -108.48688 41040 ft 494 kts 60°
2026-05-06 22:15 38.33826 -108.32974 41040 ft 496 kts 60°
2026-05-06 22:15 38.39899 -108.17232 41093 ft 493 kts 60°
2026-05-06 22:16 38.45934 -108.01517 41156 ft 493 kts 60°
2026-05-06 22:16 38.51899 -107.85754 41166 ft 493 kts 60°
2026-05-06 22:17 38.54872 -107.77855 41022 ft 493 kts 60°
2026-05-06 22:17 38.57838 -107.69956 41026 ft 494 kts 60°
2026-05-06 22:17 38.63777 -107.54087 41017 ft 495 kts 60°
2026-05-06 22:18 38.69764 -107.38206 41034 ft 495 kts 60°
2026-05-06 22:18 38.72782 -107.30232 40932 ft 499 kts 60°
2026-05-06 22:18 38.75717 -107.22444 40832 ft 499 kts 60°
2026-05-06 22:19 38.78724 -107.14445 40835 ft 498 kts 60°
2026-05-06 22:19 38.81721 -107.06452 40836 ft 498 kts 60°
2026-05-06 22:20 38.84719 -106.98435 40793 ft 498 kts 60°
2026-05-06 22:20 38.86207 -106.94445 40280 ft 495 kts 60°
2026-05-06 22:20 38.87693 -106.90458 39552 ft 496 kts 60°
2026-05-06 22:21 38.89176 -106.86467 39109 ft 492 kts 60°
2026-05-06 22:21 38.90633 -106.82525 38757 ft 486 kts 60°
2026-05-06 22:21 38.92071 -106.78635 38314 ft 479 kts 60°
2026-05-06 22:21 38.93495 -106.74784 37748 ft 476 kts 60°
2026-05-06 22:22 38.94907 -106.70965 37169 ft 471 kts 60°
2026-05-06 22:22 38.96311 -106.67165 36497 ft 471 kts 60°
2026-05-06 22:22 38.97709 -106.63378 36000 ft 469 kts 60°
2026-05-06 22:22 38.99107 -106.59591 35291 ft 468 kts 59°
2026-05-06 22:23 39.00487 -106.55848 34587 ft 457 kts 59°
2026-05-06 22:23 39.01811 -106.52224 33872 ft 441 kts 59°
2026-05-06 22:23 39.03092 -106.48703 33078 ft 429 kts 59°
2026-05-06 22:23 39.04341 -106.45278 32247 ft 417 kts 58°
2026-05-06 22:24 39.05551 -106.41957 31422 ft 405 kts 58°
2026-05-06 22:24 39.06734 -106.38714 30575 ft 395 kts 58°
2026-05-06 22:24 39.07872 -106.35592 29637 ft 386 kts 58°
2026-05-06 22:24 39.09002 -106.32493 28556 ft 380 kts 58°
2026-05-06 22:25 39.10119 -106.29426 27411 ft 376 kts 58°
2026-05-06 22:25 39.11222 -106.26397 26307 ft 372 kts 58°
2026-05-06 22:25 39.12314 -106.23392 25286 ft 368 kts 58°
2026-05-06 22:25 39.13389 -106.20425 24293 ft 364 kts 59°
2026-05-06 22:26 39.14456 -106.17483 23530 ft 362 kts 59°
2026-05-06 22:26 39.15527 -106.14540 23047 ft 364 kts 59°
2026-05-06 22:26 39.16599 -106.11583 22930 ft 364 kts 59°
2026-05-06 22:26 39.17663 -106.08619 22924 ft 364 kts 59°
2026-05-06 22:27 39.18716 -106.05678 22725 ft 356 kts 59°
2026-05-06 22:27 39.19734 -106.02827 21883 ft 347 kts 59°
2026-05-06 22:27 39.20766 -105.99969 21222 ft 357 kts 59°
2026-05-06 22:27 39.21829 -105.97029 20940 ft 365 kts 60°
2026-05-06 22:28 39.22901 -105.94046 20883 ft 369 kts 60°
2026-05-06 22:28 39.23978 -105.91038 20865 ft 369 kts 60°
2026-05-06 22:28 39.25056 -105.88049 20559 ft 364 kts 60°
2026-05-06 22:28 39.26111 -105.85116 19761 ft 358 kts 60°
2026-05-06 22:29 39.27160 -105.82205 19176 ft 360 kts 61°
2026-05-06 22:29 39.28218 -105.79268 18908 ft 360 kts 61°
2026-05-06 22:29 39.29270 -105.76341 18886 ft 360 kts 61°
2026-05-06 22:29 39.30330 -105.73420 18884 ft 358 kts 60°
2026-05-06 22:30 39.31717 -105.70803 18897 ft 350 kts 41°
2026-05-06 22:30 39.33699 -105.69101 18900 ft 340 kts 18°
2026-05-06 22:30 39.35982 -105.68534 18904 ft 333 kts 359°
2026-05-06 22:30 39.38292 -105.68241 19098 ft 336 kts 10°
2026-05-06 22:31 39.40557 -105.67392 19650 ft 340 kts 16°
2026-05-06 22:31 39.42673 -105.66066 20052 ft 335 kts 29°
2026-05-06 22:31 39.44422 -105.64170 20143 ft 326 kts 44°
2026-05-06 22:31 39.45660 -105.61771 19653 ft 322 kts 60°
2026-05-06 22:32 39.46258 -105.58938 18700 ft 336 kts 81°
2026-05-06 22:32 39.46028 -105.55900 17795 ft 345 kts 104°
2026-05-06 22:32 39.44961 -105.53122 17267 ft 347 kts 126°
2026-05-06 22:32 39.43227 -105.50960 17115 ft 347 kts 147°
2026-05-06 22:33 39.41323 -105.49053 17112 ft 347 kts 131°
2026-05-06 22:33 39.40132 -105.46388 16976 ft 342 kts 104°
2026-05-06 22:33 39.39927 -105.43388 16954 ft 333 kts 84°
2026-05-06 22:33 39.40463 -105.40604 16930 ft 311 kts 64°
2026-05-06 22:34 39.41027 -105.37925 16659 ft 308 kts 75°
2026-05-06 22:34 39.41351 -105.35194 16311 ft 308 kts 80°
2026-05-06 22:34 39.41536 -105.32437 15980 ft 307 kts 83°
2026-05-06 22:34 39.41643 -105.29683 15772 ft 307 kts 85°
2026-05-06 22:35 39.41708 -105.26927 15533 ft 306 kts 85°
2026-05-06 22:35 39.41749 -105.24190 15208 ft 304 kts 86°
2026-05-06 22:35 39.41780 -105.21463 14906 ft 303 kts 86°
2026-05-06 22:35 39.41800 -105.18777 14588 ft 302 kts 86°
2026-05-06 22:36 39.41816 -105.16071 14239 ft 301 kts 87°
2026-05-06 22:36 39.41830 -105.13361 13769 ft 304 kts 87°
2026-05-06 22:36 39.41843 -105.10618 13422 ft 302 kts 88°
2026-05-06 22:36 39.41853 -105.07941 13281 ft 293 kts 88°
2026-05-06 22:37 39.41861 -105.05347 13146 ft 284 kts 88°
2026-05-06 22:37 39.41869 -105.02834 13026 ft 274 kts 88°
2026-05-06 22:37 39.41876 -105.00391 13008 ft 270 kts 88°
2026-05-06 22:37 39.41884 -104.97967 12991 ft 269 kts 88°
2026-05-06 22:38 39.41893 -104.95547 12992 ft 269 kts 87°
2026-05-06 22:38 39.42005 -104.93137 12965 ft 267 kts 82°
2026-05-06 22:38 39.42204 -104.90749 12678 ft 267 kts 81°
2026-05-06 22:38 39.42421 -104.88357 12340 ft 268 kts 81°
2026-05-06 22:39 39.42637 -104.85974 12067 ft 265 kts 81°
2026-05-06 22:39 39.42852 -104.83623 11837 ft 262 kts 81°
2026-05-06 22:39 39.43061 -104.81289 11548 ft 261 kts 82°
2026-05-06 22:39 39.43264 -104.78968 11302 ft 258 kts 82°
2026-05-06 22:40 39.43500 -104.76679 11054 ft 254 kts 76°
2026-05-06 22:40 39.44018 -104.74548 10990 ft 242 kts 67°
2026-05-06 22:40 39.44710 -104.72634 10931 ft 229 kts 54°
2026-05-06 22:40 39.45793 -104.71213 10767 ft 218 kts 30°
2026-05-06 22:41 39.48454 -104.69503 10288 ft 212 kts 17°
2026-05-06 22:41 39.49885 -104.69136 10055 ft 207 kts
2026-05-06 22:41 39.51278 -104.69083 10008 ft 193 kts 359°
2026-05-06 22:42 39.52598 -104.69078 9991 ft 188 kts 358°
2026-05-06 22:42 39.53904 -104.69079 9995 ft 187 kts 358°
2026-05-06 22:42 39.55208 -104.69075 9990 ft 187 kts 358°
2026-05-06 22:42 39.56509 -104.69062 9985 ft 187 kts 359°
2026-05-06 22:43 39.57811 -104.69048 9990 ft 187 kts 359°
2026-05-06 22:43 39.58501 -104.69040 9989 ft 187 kts 359°
2026-05-06 22:43 39.59229 -104.69034 9979 ft 187 kts 358°
2026-05-06 22:43 39.60532 -104.69024 9976 ft 187 kts 359°
2026-05-06 22:44 39.61837 -104.69008 9974 ft 187 kts 358°
2026-05-06 22:44 39.63139 -104.68992 9949 ft 186 kts 359°
2026-05-06 22:44 39.64400 -104.68975 9805 ft 176 kts 358°
2026-05-06 22:44 39.65597 -104.68956 9601 ft 170 kts 359°
2026-05-06 22:45 39.66772 -104.68933 9317 ft 168 kts 360°
2026-05-06 22:45 39.67940 -104.68919 9019 ft 168 kts 359°
2026-05-06 22:45 39.69105 -104.68900 8703 ft 167 kts 360°
2026-05-06 22:45 39.70265 -104.68882 8415 ft 166 kts 359°
2026-05-06 22:46 39.71422 -104.68882 8121 ft 166 kts 359°
2026-05-06 22:46 39.72573 -104.68868 7805 ft 166 kts 359°
2026-05-06 22:46 39.73708 -104.68851 7527 ft 165 kts 360°
2026-05-06 22:46 39.74857 -104.68836 7252 ft 165 kts 359°
2026-05-06 22:47 39.75991 -104.68825 7054 ft 157 kts 359°
2026-05-06 22:47 39.77048 -104.68816 6974 ft 153 kts 359°
2026-05-06 22:47 39.78119 -104.68809 6991 ft 154 kts 359°
2026-05-06 22:47 39.79171 -104.68798 6925 ft 149 kts 358°
2026-05-06 22:48 39.80203 -104.68787 6762 ft 147 kts 358°
2026-05-06 22:48 39.81224 -104.68776 6546 ft 146 kts 358°
2026-05-06 22:48 39.82240 -104.68765 6284 ft 146 kts 359°
2026-05-06 22:48 39.83252 -104.68754 6039 ft 145 kts 359°
2026-05-06 22:49 39.84253 -104.68743 5833 ft 143 kts 360°
2026-05-06 22:49 39.85248 -104.68732 5631 ft 142 kts 359°
2026-05-06 22:49 39.86233 -104.68725 5454 ft 141 kts 359°
2026-05-06 22:49 39.87142 -104.68716 5382 ft 105 kts
2026-05-06 22:50 39.87578 -104.68710 5388 ft 25 kts
2026-05-06 22:50 39.87900 -104.68702 5387 ft 66 kts
2026-05-06 22:50 39.88334 -104.68692 5373 ft 59 kts
2026-05-06 22:50 39.88582 -104.68579 5367 ft 15 kts 31°
2026-05-06 22:51 39.88613 -104.68556 5368 ft 0 kts 30°
2026-05-06 22:52 39.88618 -104.68550 5367 ft 9 kts 43°
2026-05-06 22:52 39.88587 -104.68487 5368 ft 3 kts 171°
2026-05-06 22:55 39.88572 -104.68485 5369 ft 9 kts 175°
2026-05-06 22:55 39.88495 -104.68483 5370 ft 12 kts 181°
2026-05-06 22:55 39.88411 -104.68484 5369 ft 12 kts 180°
2026-05-06 22:56 39.88326 -104.68484 5374 ft 12 kts 179°
2026-05-06 22:56 39.88245 -104.68485 5375 ft 11 kts 182°
2026-05-06 22:56 39.88166 -104.68486 5379 ft 12 kts 180°
2026-05-06 22:56 39.88081 -104.68486 5380 ft 13 kts 180°
2026-05-06 22:57 39.87994 -104.68484 5379 ft 13 kts 179°
2026-05-06 22:57 39.87909 -104.68486 5386 ft 12 kts 181°
2026-05-06 22:57 39.87821 -104.68487 5388 ft 13 kts 181°
2026-05-06 22:57 39.87720 -104.68490 5388 ft 15 kts 180°
2026-05-06 22:58 39.87606 -104.68491 5388 ft 17 kts 180°
2026-05-06 22:58 39.87482 -104.68493 5385 ft 19 kts 180°
2026-05-06 22:58 39.87341 -104.68494 5386 ft 22 kts 180°
2026-05-06 22:58 39.87186 -104.68496 5386 ft 22 kts 180°
2026-05-06 22:59 39.87033 -104.68498 5383 ft 22 kts 180°
2026-05-06 22:59 39.86876 -104.68500 5392 ft 22 kts 180°
2026-05-06 22:59 39.86729 -104.68502 5387 ft 20 kts 181°
2026-05-06 22:59 39.86588 -104.68505 5395 ft 21 kts 181°
2026-05-06 23:00 39.86443 -104.68507 5398 ft 21 kts 181°
2026-05-06 23:00 39.86300 -104.68507 5394 ft 22 kts 180°
2026-05-06 23:00 39.86135 -104.68508 5389 ft 26 kts 180°
2026-05-06 23:00 39.85940 -104.68509 5389 ft 30 kts 180°
2026-05-06 23:01 39.85745 -104.68508 5379 ft 21 kts 167°
2026-05-06 23:01 39.85689 -104.68400 5383 ft 12 kts 94°
2026-05-06 23:01 39.85686 -104.68295 5387 ft 12 kts 91°
2026-05-06 23:01 39.85681 -104.68178 5401 ft 13 kts 102°
2026-05-06 23:02 39.85667 -104.68050 5388 ft 15 kts 94°
2026-05-06 23:02 39.85665 -104.67906 5387 ft 17 kts 90°
2026-05-06 23:02 39.85666 -104.67743 5386 ft 19 kts 90°
2026-05-06 23:02 39.85665 -104.67562 5386 ft 21 kts 90°
2026-05-06 23:03 39.85664 -104.67372 5388 ft 21 kts 90°
2026-05-06 23:03 39.85715 -104.67286 5384 ft 12 kts
2026-05-06 23:03 39.85803 -104.67283 5386 ft 12 kts 359°
2026-05-06 23:03 39.85808 -104.67283 5387 ft 0 kts 359°